STARLINK-32744, 62509

Orbit data source: Space-Track

STARLINK-32744, 62509 is a payload satellite owned by SpaceX/Seattle (US) in LEO that was launched on Mon, 06 Jan 2025 UTC via an FALCON 9 launch vehicle from the Air Force Eastern Test Range (AFETR). Payload-class satellites include a variety of spacecraft equipped with specific instruments for various scientific and technological missions. These include communications satellites like Starlink; space stations such as the ISS; scientific satellites like the Hubble; Earth observation satellites from companies like Planet Labs, Umbra, and HawkEye 360; GPS; miniature CubeSats for education and research; and military/defense satellites.

Loading next visibility...
Identifier
62509, 2025-003Y
Orbit
LEO
Country
Flag of USUS
Related business
Manufacturer
SpaceX/Seattle
Mission
Operational Commercial Communications
Bus & Motor
STARLINK V2M, Unknown motor
Mass
730 kg wet, ~700 kg dry
Launch date (UTC)
2025-01-06 (1 year ago)
Launch vehicle
FALCON 9
Launch site
Air Force Eastern Test Range (AFETR)
Object type
Payload
Rocket body
Debris
Shape & HBR
Box + 2 Pan, 17.7 m
Radar Cross Section
33.884 m², Large (>1 m²)

Expand to show TLE details & history
Last TLE update: 19 hours ago

TLE from 19 hours ago
0 STARLINK-32744
1 62509U 25003Y   26171.05599061  .00015889  00000-0  58529-3 0  9997
2 62509  43.0024  71.1658 0001402 277.9868  82.0825 15.27602347 82203
Epoch: 2026-06-20T01:20Z
TLE epoch observation values (Epoch: 2026-06-20T01:20:37.588Z)
Latitude
Longitude
142.73309°
Altitude
482.626 km
Speed
7.626 km/s
True Right ascension
04h 44m 39s
True Declination
0° 00' 00"
Sunlit
Object was in daylight at epoch
Visualization orbit readout
Latitude
Unknown
Longitude
Unknown
Altitude
Unknown
Speed
Unknown
Apparent Right ascension
Unknown
Apparent Declination
Unknown
Sunlit
N/A
Visualization observer readout
Local Sidereal Time
07:16:51
Azimuth
Unknown
Elevation
Unknown
Doppler factor
Unknown
Orbital elements
Apogee altitude
485.889 km
Perigee altitude
483.965 km
Semi-major axis
6,863.064 km
Eccentricity
0.00014
Inclination
43.0024°
RAAN
71.1658°
Arg. of periapsis
277.9868°
True anomaly
82.09841°
Mean anomaly
82.0825°
Eccentric anomaly
82.09046°
Mean motion
3.81739 °/min
Orbital period
94.31 mins
BSTAR
0.00058529
Loading maneuver chart data...
Computing Atmospheric mass density...
Loading historical data...
Loading historical data...
Loading historical data...
Loading historical data...
Loading historical data...
Loading historical data...
Loading historical data...

Documentation

Showing up to 5 results
|